Location: Fours
(44.3167°N, 6.7000°E)
Time: 12:21:27
(UTC+00:00)

CSL-04 DEB - Pass Details

Date: 30 November 2020
Orbit: 545 x 627 km, 98.8° (Epoch: 25 January)

Event Time Altitude Azimuth Distance (km) Brightness Sun altitude
Exits shadow 17:02:17 - 14° (NNE) 2,802 7.6 -11.6°
Reaches altitude 10° 17:04:24 10° 14° (NNE) 1,920 6.8 -12.0°
Maximum altitude 17:08:34 90° 283° (WNW) 604 4.5 -12.7°
Drops below altitude 10° 17:12:49 10° 196° (SSW) 1,953 7.6 -13.4°
Sets 17:15:00 0° 196° (SSW) 2,864 8.5 -13.8°
